| time (UTC) | temp F | wind direction | speed MPH | gust MPH | rain 1hr in | rain 24hr in | rain mn in | humidity % | barometer mb |
| 20260504081529 | 37 | 222 | 21.0 | 41.0 | 0.00 | 0.53 | 0.09 | 92 | 981.0 |
| 20260504050107 | 39 | 200 | 12.0 | 29.0 | 0.02 | 0.48 | 0.05 | 93 | 974.9 |
| 20260504044601 | 38 | 204 | 10.0 | 21.0 | 0.02 | 0.48 | 0.05 | 92 | 974.5 |
| 20260504043055 | 38 | 177 | 9.0 | 16.0 | 0.02 | 0.48 | 0.05 | 92 | 974.1 |
| 20260504041555 | 38 | 186 | 8.0 | 19.0 | 0.02 | 0.47 | 0.04 | 92 | 974.0 |
| 20260504040052 | 39 | 147 | 9.0 | 18.0 | 0.03 | 0.46 | 0.03 | 92 | 974.2 |
| 20260504034546 | 39 | 173 | 9.0 | 22.0 | 0.04 | 0.46 | 0.03 | 92 | 974.8 |
| 20260504033042 | 38 | 137 | 9.0 | 26.0 | 0.03 | 0.46 | 0.02 | 92 | 975.6 |
| 20260504031544 | 38 | 134 | 10.0 | 19.0 | 0.02 | 0.45 | 0.02 | 92 | 976.4 |
| 20260504030035 | 38 | 99 | 11.0 | 19.0 | 0.01 | 0.43 | 0.00 | 92 | 977.2 |
| 20260504024531 | 39 | 144 | 11.0 | 18.0 | 0.00 | 0.43 | 0.43 | 92 | 978.1 |
| 20260504023030 | 39 | 114 | 8.0 | 21.0 | 0.00 | 0.43 | 0.43 | 92 | 978.9 |
| 20260504021527 | 40 | 139 | 10.0 | 21.0 | 0.00 | 0.43 | 0.43 | 92 | 979.7 |
| 20260504020024 | 40 | 156 | 6.0 | 17.0 | 0.01 | 0.43 | 0.43 | 92 | 980.5 |
| 20260504014520 | 41 | 147 | 9.0 | 16.0 | 0.01 | 0.43 | 0.43 | 92 | 981.7 |
| 20260504013021 | 41 | 124 | 7.0 | 18.0 | 0.02 | 0.43 | 0.43 | 92 | 982.5 |
| 20260504011514 | 42 | 153 | 9.0 | 18.0 | 0.02 | 0.43 | 0.43 | 92 | 983.2 |
| 20260504010011 | 41 | 169 | 7.0 | 18.0 | 0.02 | 0.42 | 0.42 | 92 | 983.8 |
| 20260504004511 | 41 | 90 | 7.0 | 23.0 | 0.02 | 0.42 | 0.42 | 92 | 983.9 |
| 20260504003010 | 40 | 112 | 9.0 | 26.0 | 0.02 | 0.41 | 0.41 | 92 | 984.3 |
| 20260504001508 | 40 | 105 | 10.0 | 28.0 | 0.02 | 0.40 | 0.40 | 92 | 984.7 |
| 20260504000021 | 40 | 85 | 13.0 | 31.0 | 0.04 | 0.40 | 0.40 | 92 | 984.6 |
| 20260503234505 | 40 | 134 | 13.0 | 34.0 | 0.06 | 0.39 | 0.39 | 91 | 985.1 |
| 20260503233007 | 40 | 95 | 18.0 | 34.0 | 0.07 | 0.39 | 0.39 | 92 | 986.5 |
| 20260503231501 | 40 | 66 | 20.0 | 39.0 | 0.13 | 0.39 | 0.39 | 92 | 986.4 |
| 20260503230058 | 39 | 101 | 13.0 | 32.0 | 0.13 | 0.37 | 0.37 | 92 | 987.7 |
| 20260503224556 | 38 | 69 | 14.0 | 39.0 | 0.13 | 0.34 | 0.34 | 91 | 989.0 |
| 20260503223053 | 38 | 128 | 12.0 | 26.0 | 0.14 | 0.32 | 0.32 | 91 | 989.7 |
| 20260503221554 | 38 | 99 | 12.0 | 27.0 | 0.09 | 0.26 | 0.26 | 91 | 991.5 |
| 20260503220046 | 38 | 107 | 6.0 | 22.0 | 0.08 | 0.24 | 0.24 | 91 | 992.9 |
| 20260503214545 | 38 | 85 | 9.0 | 24.0 | 0.09 | 0.20 | 0.20 | 91 | 993.8 |
| 20260503213044 | 38 | 111 | 6.0 | 18.0 | 0.10 | 0.18 | 0.18 | 91 | 993.7 |
| 20260503211539 | 38 | 47 | 8.0 | 21.0 | 0.10 | 0.17 | 0.17 | 91 | 994.8 |
| 20260503210036 | 38 | 95 | 5.0 | 18.0 | 0.11 | 0.16 | 0.16 | 90 | 995.7 |
| 20260503204535 | 38 | 85 | 10.0 | 20.0 | 0.08 | 0.11 | 0.11 | 90 | 995.5 |
| 20260503203041 | 39 | 85 | 8.0 | 25.0 | 0.06 | 0.08 | 0.08 | 90 | 997.1 |
| 20260503201535 | 39 | 85 | 8.0 | 23.0 | 0.03 | 0.06 | 0.06 | 90 | 996.9 |
| 20260503200029 | 40 | 59 | 7.0 | 19.0 | 0.04 | 0.05 | 0.05 | 90 | 997.7 |
| 20260503194527 | 40 | 112 | 10.0 | 25.0 | 0.02 | 0.03 | 0.03 | 89 | 998.8 |
| 20260503193026 | 42 | 76 | 7.0 | 15.0 | 0.02 | 0.02 | 0.02 | 89 | 999.4 |
| 20260503191523 | 42 | 14 | 3.0 | 16.0 | 0.02 | 0.02 | 0.02 | 89 | 1000.4 |
| 20260503190021 | 43 | 77 | 4.0 | 15.0 | 0.00 | 0.01 | 0.01 | 88 | 1000.9 |
| 20260503184522 | 43 | 90 | 6.0 | 16.0 | 0.01 | 0.01 | 0.01 | 88 | 1001.1 |
| 20260503183015 | 43 | 90 | 6.0 | 16.0 | 0.01 | 0.01 | 0.01 | 88 | 1002.7 |
| 20260503181516 | 43 | 55 | 7.0 | 15.0 | 0.01 | 0.01 | 0.01 | 87 | 1003.6 |
| 20260503180021 | 43 | 45 | 7.0 | 14.0 | 0.01 | 0.01 | 0.01 | 84 | 1004.6 |
| 20260503174513 | 44 | 32 | 6.0 | 11.0 | 0.00 | 0.00 | 0.00 | 82 | 1005.4 |
| 20260503173010 | 44 | 30 | 6.0 | 14.0 | 0.00 | 0.00 | 0.00 | 80 | 1005.8 |
| 20260503171603 | 45 | 55 | 4.0 | 11.0 | 0.00 | 0.00 | 0.00 | 80 | 1007.5 |